Hourly Data Report for June 13, 2021

VINELAND STATION RCS
ONTARIO
Current Station Operator: ECCC - MSC

43°11'00.000" N
79°24'00.000" W
79.20 m
6139148
71171
XVN

Download Data

Hourly Data (June 2021)
Hourly Data Report for June 13, 2021
TIME
LST
Temp Definition
°C
Dew Point Definition
°C
Rel Hum Definition
%
Precip. Amount Definition
mm

Wind Dir Definition
10's deg

Wind Spd Definition
km/h
Visibility Definition
km
Stn Press Definition
kPa
Hmdx Definition


Wind Chill Definition


Weather Definition


00:00 16.1 13.5 84 0.0 27 1   100.10     LegendNANA
01:00 16.3 14.7 91 0.0 7 2   100.05     LegendNANA
02:00 16.7 14.2 85 0.0 20 4   100.09     LegendNANA
03:00 16.9 14.6 86 0.0 11 3   100.07     LegendNANA
04:00 17.2 14.9 86 0.0 21 4   100.10     LegendNANA
05:00 17.2 15.4 89 0.4 25 3   100.16     LegendNANA
06:00 17.5 15.8 90 0.1 10 4   100.14     LegendNANA
07:00 19.3 15.3 78 0.0 16 4   100.13     LegendNANA
08:00 21.8 14.4 63 0.0 19 6   100.12 25   LegendNANA
09:00 23.4 16.3 64 0.0 1 4   100.09 28   LegendNANA
10:00 22.1 14.7 63 0.0 1 6   100.09 26   LegendNANA
11:00 22.7 11.3 49 0.0 5 7   100.09 25   LegendNANA
12:00 23.8 11.1 45 0.0 5 5   100.05 26   LegendNANA
13:00 23.0 12.1 50 0.0 7 7   99.98 25   LegendNANA
14:00 25.5 14.5 51 0.0 7 6   99.93 29   LegendNANA
15:00 25.6 14.4 50 0.0 8 5   99.86 29   LegendNANA
16:00 24.3 14.2 53 0.0 8 6   99.77 28   LegendNANA
17:00 21.2 14.8 67 0.0 3 11   99.72 25   LegendNANA
18:00 23.5 20.6 83 6.1 32 3   99.74 32   LegendNANA
19:00 23.7 18.7 73 0.0 33 3   99.81 30   LegendNANA
20:00 21.0 17.6 81 0.0 28 10   99.85 27   LegendNANA
21:00 20.9 14.3 66 0.0 29 16   99.92     LegendNANA
22:00 20.2 13.3 65 0.0 29 11   99.94     LegendNANA
23:00 19.7 12.2 62 0.0 28 12   99.92     LegendNANA

Notes on Data Quality.

Legend

  • E = Estimated
  • M = Missing
  • NA = Not Available*
  • [empty] = Indicates an unobserved value
Date modified: